Mankato, MN

11:15 PM CST on November 21, 2019 (GMT -0600)
Mankato Regional

Weather History for KMKT - October, 2019

Change the Weather History Date:

Sunday, October 13, 2019

  Actual Average Record
Temperature  
Mean Temperature 38 °F -  
Max Temperature 42 °F 58 °F 77 °F (2000)
Min Temperature 35 °F 38 °F 28 °F (2002)
Degree Days  
Heating Degree Days 26    
Moisture  
Dew Point 31 °F    
Average Humidity 77    
Maximum Humidity 86    
Minimum Humidity 62    
Precipitation  
Precipitation 0.00 in - - ()
Sea Level Pressure  
Sea Level Pressure 29.87 in    
Wind  
Wind Speed 11 mph ()    
Max Wind Speed 17 mph    
Max Gust Speed 25 mph    
Visibility 10.0 miles    
Events Rain    
Averages and records for this station are not official NWS values.
T = Trace of Precipitation, MM = Missing Value Source: Averaged Metar Reports

Daily Weather History Graph

Daily Weather History Graph

Search for Another Location

Airport or City:

Astronomy

Oct. 13, 2019 Rise Set
Actual Time 7:27 AM CDT 6:35 PM CDT
Civil Twilight 6:58 AM CDT 7:04 PM CDT
Nautical Twilight 6:25 AM CDT 7:37 PM CDT
Astronomical Twilight 5:51 AM CDT 8:11 PM CDT
Moon 7:00 PM CDT (10/13) 6:59 AM CDT (10/13)
Length of Visible Light 12h 05m
Length of Day
11h 07m
Full, 100% of the Moon is Illuminated
Oct 13
Full
Oct 13
Full
Oct 21
Last Quarter
Oct 27
New
Nov 4
First Quarter

Hourly Weather History & Observations

Time (CDT) Temp. Windchill Dew Point Humidity Pressure Visibility Wind Dir Wind Speed Gust Speed Precip Events Conditions
12:56 AM 35.1 °F 25.9 °F 30.9 °F 85% 29.75 in 10.0 mi West 13.8 mph - 0.00 in   Overcast
2:56 AM 35.1 °F 26.4 °F 30.9 °F 85% 29.75 in 10.0 mi West 12.7 mph - N/A   Overcast
5:56 AM 35.1 °F 25.9 °F 30.0 °F 82% 29.77 in 10.0 mi West 13.8 mph 18.4 mph N/A   Overcast
6:56 AM 35.1 °F 26.9 °F 30.0 °F 82% 29.79 in 10.0 mi West 11.5 mph - 0.00 in Rain Light Rain
7:56 AM 35.1 °F 27.4 °F 30.9 °F 85% 29.79 in 10.0 mi West 10.4 mph - 0.00 in Rain Light Rain
8:56 AM 36.0 °F 28.5 °F 30.9 °F 82% 29.79 in 10.0 mi West 10.4 mph - 0.00 in   Overcast
9:56 AM 37.0 °F 28.9 °F 30.9 °F 79% 29.81 in 10.0 mi West 12.7 mph - 0.00 in   Overcast
10:56 AM 37.9 °F 28.9 °F 30.9 °F 76% 29.83 in 10.0 mi WNW 16.1 mph 25.3 mph 0.00 in   Overcast
1:34 PM 41.0 °F 33.1 °F 30.2 °F 65% 29.82 in 10.0 mi WNW 15.0 mph 23.0 mph N/A   Overcast
1:56 PM 41.0 °F 32.5 °F 30.9 °F 67% 29.86 in 10.0 mi WNW 17.3 mph 23.0 mph N/A   Overcast
2:56 PM 42.1 °F 34.2 °F 30.0 °F 62% 29.86 in 10.0 mi West 16.1 mph 24.2 mph N/A   Overcast
3:56 PM 41.0 °F 32.8 °F 30.0 °F 65% 29.88 in 10.0 mi West 16.1 mph - N/A   Overcast
4:56 PM 39.9 °F 31.1 °F 32.0 °F 73% 29.91 in 10.0 mi West 17.3 mph 23.0 mph 0.00 in Rain Light Rain
5:56 PM 39.0 °F 31.4 °F 30.9 °F 73% 29.93 in 10.0 mi WNW 12.7 mph - 0.00 in   Clear
6:56 PM 39.0 °F 32.8 °F 30.9 °F 73% 29.94 in 10.0 mi West 9.2 mph - N/A   Overcast
7:56 PM 37.9 °F 32.1 °F 32.0 °F 79% 29.97 in 10.0 mi West 8.1 mph - N/A   Partly Cloudy
8:56 PM 39.0 °F 32.8 °F 33.1 °F 79% 29.98 in 10.0 mi West 9.2 mph - N/A   Overcast
9:56 PM 37.9 °F 31.5 °F 33.1 °F 83% 29.99 in 10.0 mi WNW 9.2 mph - N/A   Overcast
10:56 PM 37.0 °F 29.3 °F 32.0 °F 82% 30.00 in 10.0 mi WNW 11.5 mph - N/A   Mostly Cloudy
11:56 PM 37.0 °F 31.6 °F 33.1 °F 86% 30.01 in 10.0 mi West 6.9 mph - N/A   Overcast